Weather History for KLRF - October, 2012

Change the Weather History Date:

Friday, October 5, 2012

  Actual Average Record
Temperature  
Mean Temperature 67 °F -  
Max Temperature 84 °F 79 °F 91 °F (2000)
Min Temperature 50 °F 52 °F 37 °F (1979)
Cooling Degree Days 2    
Growing Degree Days 17 (Base 50)    
Moisture  
Dew Point 58 °F    
Average Humidity 80    
Maximum Humidity 96    
Minimum Humidity 50    
Precipitation  
Precipitation 0.04 in - - ()
Sea Level Pressure  
Sea Level Pressure 30.06 in    
Wind  
Wind Speed 7 mph (NW)    
Max Wind Speed 16 mph    
Max Gust Speed 26 mph    
Visibility 10 miles    
Events Rain , Thunderstorm    
Averages and records for this station are not official NWS values.
T = Trace of Precipitation, MM = Missing Value Source: NWS Daily Summary

Daily Weather History Graph

Daily Weather History Graph

Search for Another Location

Airport or City:

Trip Planner

Search our weather history database for the weather conditions in past years. The results will help you decide how hot, cold, wet, or windy it might be!

Date:

Astronomy

Oct. 05, 2012 Rise Set
Actual Time 7:06 AM CDT 6:46 PM CDT
Civil Twilight 6:41 AM CDT 7:11 PM CDT
Nautical Twilight 6:12 AM CDT 7:40 PM CDT
Astronomical Twilight 5:42 AM CDT 8:10 PM CDT
Moon 10:21 PM CDT (10/5) 12:03 PM CDT (10/5)
Length of Visible Light 12h 30m
Length of Day
11h 39m
Waning Gibbous, 74% of the Moon is Illuminated
Oct 5
Waning Gibbous
Oct 8
Last Quarter
Oct 15
New
Oct 21
First Quarter
Oct 29
Full

Hourly Weather History & Observations

Time (CDT) Temp. Heat Index Dew Point Humidity Pressure Visibility Wind Dir Wind Speed Gust Speed Precip Events Conditions
12:55 AM 60.3 °F - 57.9 °F 92% 30.14 in 10.0 mi Calm Calm - N/A   Clear
1:55 AM 59.5 °F - 57.7 °F 94% 30.14 in 10.0 mi Calm Calm - N/A   Clear
2:55 AM 58.6 °F - 57.2 °F 95% 30.13 in 10.0 mi Calm Calm - N/A   Clear
3:55 AM 59.4 °F - 58.1 °F 96% 30.12 in 10.0 mi Calm Calm - N/A   Scattered Clouds
4:55 AM 61.2 °F - 60.1 °F 96% 30.11 in 10.0 mi NNE 3.5 mph - N/A   Overcast
5:55 AM 61.5 °F - 60.1 °F 95% 30.10 in 10.0 mi Calm Calm - N/A   Mostly Cloudy
6:55 AM 65.5 °F - 60.6 °F 84% 30.09 in 10.0 mi SSW 8.1 mph - N/A   Clear
7:55 AM 67.1 °F - 60.4 °F 79% 30.10 in 10.0 mi South 5.8 mph - N/A   Partly Cloudy
8:55 AM 69.1 °F - 61.3 °F 76% 30.09 in 10.0 mi South 6.9 mph - N/A   Clear
9:55 AM 72.9 °F - 62.4 °F 70% 30.09 in 10.0 mi South 8.1 mph - N/A   Clear
10:55 AM 77.4 °F - 62.8 °F 61% 30.08 in 10.0 mi SSW 10.4 mph - N/A   Clear
12:55 PM 82.4 °F 83.2 °F 62.2 °F 50% 30.04 in 10.0 mi South 12.7 mph - N/A   Scattered Clouds
1:55 PM 82.4 °F 83.7 °F 63.7 °F 53% 30.00 in 10.0 mi South 10.4 mph - N/A   Scattered Clouds
2:55 PM 83.7 °F 84.7 °F 63.0 °F 50% 29.97 in 10.0 mi SSW 12.7 mph - N/A   Partly Cloudy
3:55 PM 82.8 °F 83.8 °F 63.1 °F 51% 29.94 in 10.0 mi South 10.4 mph - N/A   Partly Cloudy
4:14 PM 82.4 °F 83.4 °F 62.6 °F 51% 29.95 in 10.0 mi South 8.1 mph - N/A Thunderstorm Thunderstorm
4:37 PM 80.6 °F 81.8 °F 62.6 °F 54% 29.96 in 7.0 mi SW 13.8 mph - N/A Rain Light Rain
4:38 PM 80.6 °F 82.3 °F 64.4 °F 58% 29.96 in 7.0 mi SW 12.7 mph - N/A Rain Light Rain
4:44 PM 78.8 °F - 66.2 °F 65% 29.95 in 4.0 mi West 13.8 mph - N/A Rain Light Rain
4:55 PM 73.9 °F - 68.2 °F 82% 29.95 in 10.0 mi WNW 10.4 mph 20.7 mph 0.02 in Rain Light Rain
5:07 PM 71.6 °F - 69.8 °F 94% 29.97 in 10.0 mi West 8.1 mph - N/A Rain Light Rain
5:24 PM 71.6 °F - 68.0 °F 88% 29.99 in 10.0 mi WNW 12.7 mph - N/A   Mostly Cloudy
5:27 PM 69.8 °F - 68.0 °F 94% 29.99 in 10.0 mi NW 10.4 mph - N/A   Light Drizzle
5:35 PM 69.8 °F - 68.0 °F 94% 30.00 in 10.0 mi NW 10.4 mph 19.6 mph N/A Rain Light Rain
5:55 PM 66.4 °F - 63.0 °F 89% 30.01 in 10.0 mi NNW 13.8 mph 20.7 mph 0.01 in Rain Light Rain
6:07 PM 62.6 °F - 59.0 °F 88% 30.03 in 10.0 mi NNW 16.1 mph 26.5 mph N/A Rain , Thunderstorm Light Thunderstorms and Rain
6:09 PM 62.6 °F - 59.0 °F 88% 30.04 in 10.0 mi NW 11.5 mph 26.5 mph N/A Rain , Thunderstorm Light Rain
6:22 PM 60.8 °F - 57.2 °F 88% 30.04 in 10.0 mi NNW 10.4 mph 21.9 mph N/A Rain , Thunderstorm Light Rain
6:24 PM 59.0 °F - 57.2 °F 94% 30.04 in 10.0 mi NNW 10.4 mph 21.9 mph N/A Rain Light Rain
6:31 PM 59.0 °F - 57.2 °F 94% 30.05 in 10.0 mi NNW 9.2 mph - N/A Rain Light Rain
6:39 PM 59.0 °F - 55.4 °F 88% 30.05 in 10.0 mi NNW 11.5 mph 19.6 mph N/A   Mostly Cloudy
6:50 PM 59.0 °F - 55.4 °F 88% 30.05 in 10.0 mi North 13.8 mph 19.6 mph N/A   Overcast
6:55 PM 58.1 °F - 54.7 °F 88% 30.06 in 10.0 mi NNW 11.5 mph 19.6 mph 0.01 in   Overcast
6:56 PM 57.2 °F - 53.6 °F 88% 30.05 in 10.0 mi NNW 10.4 mph - N/A   Overcast
7:55 PM 55.4 °F - 51.4 °F 87% 30.09 in 10.0 mi North 13.8 mph 18.4 mph N/A   Overcast
8:55 PM 54.3 °F - 49.3 °F 83% 30.13 in 10.0 mi North 11.5 mph 23.0 mph N/A   Overcast
9:33 PM 53.6 °F - 46.4 °F 77% 30.15 in 10.0 mi North 12.7 mph 25.3 mph N/A   Overcast
9:48 PM 53.6 °F - 48.2 °F 82% 30.15 in 10.0 mi North 9.2 mph - N/A   Overcast
9:55 PM 52.9 °F - 47.3 °F 81% 30.15 in 10.0 mi North 13.8 mph 19.6 mph N/A   Overcast
10:36 PM 51.8 °F - 46.4 °F 82% 30.17 in 10.0 mi NNE 12.7 mph 21.9 mph N/A   Light Drizzle
10:47 PM 51.8 °F - 44.6 °F 76% 30.17 in 10.0 mi North 15.0 mph 23.0 mph N/A   Overcast
10:55 PM 51.1 °F - 45.0 °F 80% 30.17 in 10.0 mi NNE 16.1 mph 23.0 mph 0.00 in   Overcast
11:55 PM 50.7 °F - 43.7 °F 77% 30.19 in 10.0 mi NNE 10.4 mph - N/A   Overcast